Location: Angel
(38.7209°N, 82.2693°W)
Time: 13:16:49
(UTC+00:00)

BlueWalker 3 - Visible Passes

Search period start: 02 December 2022 00:00
Search period end: 12 December 2022 00:00
Orbit: 500 x 519 km, 53.2° (Epoch: 01 December)

Date Brightness Start Highest point End Pass type
(mag) Time Alt. Az. Time Alt. Az. Time Alt. Az.
03 Dec 4.4 23:43:04 10° N 23:43:38 11° N 23:43:38 11° N visible
04 Dec 4.3 23:24:36 10° N 23:25:43 11° N 23:26:02 11° NNE visible
05 Dec 4.2 23:06:08 10° N 23:07:22 11° NNE 23:08:29 10° NNE visible
06 Dec 4.2 22:47:39 10° N 22:49:01 11° NNE 22:50:22 10° NNE visible
07 Dec 4.5 00:25:08 10° NNW 00:25:51 14° NNW 00:25:51 14° NNW visible
08 Dec 3.7 00:06:42 10° NW 00:08:29 22° NNW 00:08:29 22° NNW visible
08 Dec 2.8 23:48:16 10° NW 23:51:15 33° N 23:51:15 33° N visible
09 Dec 2.5 23:29:49 10° NW 23:33:29 38° NE 23:34:12 35° ENE visible
10 Dec 5.2 01:08:45 10° WNW 01:09:05 12° WNW 01:09:05 12° WNW visible
10 Dec 2.4 23:11:22 10° NW 23:15:05 41° NE 23:17:26 19° E visible
11 Dec 4.5 00:50:23 10° WNW 00:52:20 21° W 00:52:20 21° W visible
11 Dec 2.3 22:52:54 10° NW 22:56:40 43° NE 23:00:22 10° ESE visible
